TimeEST,TemperatureF,Dew PointF,Humidity,Sea Level PressureIn,VisibilityMPH,Wind Direction,Wind SpeedMPH,Gust SpeedMPH,PrecipitationIn,Events,Conditions,WindDirDegrees,DateUTC
12:53 AM,48.0,34.0,58,30.18,10.0,North,4.6,-,N/A,,Clear,10,2012-11-23 05:53:00
1:53 AM,48.9,37.9,66,30.18,10.0,North,5.8,-,N/A,,Clear,360,2012-11-23 06:53:00
2:53 AM,50.0,39.9,68,30.17,10.0,North,6.9,-,N/A,,Clear,350,2012-11-23 07:53:00
3:53 AM,48.0,41.0,77,30.17,10.0,NNW,4.6,-,N/A,,Clear,340,2012-11-23 08:53:00
4:53 AM,50.0,41.0,71,30.17,10.0,North,8.1,-,N/A,,Clear,360,2012-11-23 09:53:00
5:53 AM,48.0,39.9,74,30.18,10.0,NNW,4.6,-,N/A,,Clear,340,2012-11-23 10:53:00
6:53 AM,48.0,41.0,77,30.20,10.0,NNW,5.8,-,N/A,,Clear,340,2012-11-23 11:53:00
7:53 AM,53.1,42.1,66,30.21,10.0,NNW,6.9,-,N/A,,Clear,340,2012-11-23 12:53:00
8:53 AM,57.0,39.0,51,30.23,10.0,NNW,8.1,-,N/A,,Clear,330,2012-11-23 13:53:00
9:53 AM,63.0,39.9,43,30.24,10.0,North,6.9,-,N/A,,Clear,350,2012-11-23 14:53:00
10:53 AM,66.0,37.0,34,30.24,10.0,North,9.2,-,N/A,,Clear,350,2012-11-23 15:53:00
11:53 AM,69.1,33.1,26,30.21,10.0,North,9.2,-,N/A,,Clear,350,2012-11-23 16:53:00
12:53 PM,71.1,30.9,23,30.17,10.0,North,10.4,-,N/A,,Clear,350,2012-11-23 17:53:00
1:53 PM,72.0,33.1,24,30.14,10.0,NNW,12.7,-,N/A,,Clear,340,2012-11-23 18:53:00
2:53 PM,73.0,34.0,24,30.12,10.0,NNW,10.4,-,N/A,,Clear,340,2012-11-23 19:53:00
3:53 PM,72.0,35.1,26,30.11,10.0,North,8.1,-,N/A,,Clear,350,2012-11-23 20:53:00
4:53 PM,69.1,37.9,32,30.12,10.0,North,5.8,-,N/A,,Clear,360,2012-11-23 21:53:00
5:53 PM,61.0,48.9,64,30.12,10.0,Calm,Calm,-,N/A,,Clear,0,2012-11-23 22:53:00
6:53 PM,57.9,50.0,75,30.13,10.0,Calm,Calm,-,N/A,,Clear,0,2012-11-23 23:53:00
7:53 PM,57.9,42.1,56,30.14,10.0,WNW,5.8,-,N/A,,Clear,290,2012-11-24 00:53:00
8:53 PM,57.9,43.0,58,30.14,10.0,West,3.5,-,N/A,,Clear,280,2012-11-24 01:53:00
9:53 PM,55.9,42.1,60,30.14,10.0,West,6.9,-,N/A,,Clear,280,2012-11-24 02:53:00
10:53 PM,55.9,45.0,67,30.14,10.0,West,5.8,-,N/A,,Clear,280,2012-11-24 03:53:00
11:53 PM,54.0,46.9,77,30.12,10.0,West,5.8,-,N/A,,Clear,270,2012-11-24 04:53:00